Location: Colossi of Memnon
(25.7167°N, 32.6167°E)
Time: 21:22:21
(UTC+00:00)

Cosmos 2344 - Pass Details

Date: 05 March 2021
Orbit: 1241 x 3001 km, 63.3° (Epoch: 20 April)

Event Time Altitude Azimuth Distance (km) Brightness Sun altitude
Exits shadow 02:15:32 35° 316° (NW) 1,899 4.2 -26.3°
Drops below altitude 10° 02:21:32 10° 9° (N) 3,247 5.9 -25.0°
Sets 02:24:40 0° 18° (NNE) 4,296 6.7 -24.3°
